[[{"header":{"parameterUnit":"m.s-1","parameterCategory":1,"la1":30.2991,"la2":30.254,"lo1":-89.0895,"lo2":-89.0444,"dy":0.0017,"dx":0.0017,"nx":28,"ny":28,"refTime":"2023-09-02T21:00:00:Z","depth":0,"parameterNumber":2,"parameterNumberName":"U-component_of_WINDS"},"data":[0,0,0,0,0,0,0,0,0,0,0,0,0,0,0,0,0,0,0,0,0,0,0,0,0,0,0,0,0,0,0,0,0,0,0,0,0,0,0,0,0,0,0,0,0,0,0,0,0,0,0,0,0,0,0,0,0,0,-2.9792,-2.9792,0,-2.986,-2.9861,-2.9861,-2.9813,-2.9811,-2.9808,-2.9806,-2.9876,-2.988,-2.9883,0,0,0,0,0,0,0,0,0,0,0,0,0,-2.9621,-2.9624,-2.9792,-2.9792,-2.9793,-2.986,-2.9861,-2.9862,-2.9813,-2.981,-2.9808,-2.9805,-2.9875,-2.9879,-2.9884,0,0,0,0,0,0,0,0,0,0,0,0,0,-2.9693,-2.9625,-2.9791,-2.9777,-2.9777,-2.9859,-2.9861,-2.9862,-2.9814,-2.981,-2.9807,-2.9804,-2.9873,-2.9879,-2.9884,-2.9985,0,0,-2.9902,-2.9905,0,0,0,0,0,0,0,0,-2.9689,-2.9699,-2.9778,-2.9778,-2.9778,-2.9824,-2.9826,-2.9903,-2.9814,-2.98,-2.9806,-2.9803,-2.9861,-2.9868,-2.9888,-2.9988,-2.9991,-2.9903,-2.9906,-2.9909,-2.991,0,0,0,0,0,0,0,-2.9684,-2.9696,-2.9818,-2.978,-2.9779,-2.9768,-2.9774,-2.984,-2.9848,-2.9801,-2.9797,-2.9806,-2.9861,-2.9882,-2.9889,-2.9992,-2.9902,-2.9908,-2.9911,-2.9913,-3.0181,-3.0184,0,0,0,0,0,0,-2.968,-2.9692,-2.9816,-2.9821,-2.9724,-2.9774,-2.9781,-2.9813,-2.9847,-2.9849,-2.9809,-2.9803,-2.9874,-2.9882,-2.9891,-3.0011,-2.9909,-2.9914,-2.9917,-3.0177,-3.0181,-3.0185,0,0,0,0,0,0,-2.9676,-2.9692,-2.9814,-2.9755,-2.977,-2.978,-2.9816,-2.9816,-2.9837,-2.9853,-2.9854,-2.9829,-2.9872,-2.9883,-2.9962,-3.0013,-2.9917,-2.9922,-3.0173,-3.0178,-3.0183,-3.0253,0,0,0,0,0,0,-2.9672,-2.9691,-2.9728,-2.9757,-2.9773,-2.9883,-2.9819,-2.9819,-2.9848,-2.9841,-2.9873,-2.9875,-2.987,-2.9954,-2.9968,-3.0019,-2.9926,-3.0168,-3.0175,-3.0182,-3.0246,-3.026,-3.0272,0,0,0,0,0,-2.9666,-2.9744,-2.973,-2.9746,-2.9821,-2.9886,-2.9896,-2.9889,-2.9852,-2.989,-2.9901,-2.9874,-3.0006,-2.9963,-2.9978,-3.0032,-3.0165,-3.0173,-3.0181,-3.024,-3.0257,-3.0271,0,0,0,0,0,0,-2.972,-2.9748,-2.9732,-2.9822,-2.9853,-2.9878,-2.9925,-2.9907,-2.9947,-2.994,-2.993,-2.9937,-3.002,-3.0035,-2.9985,-3.0132,-3.008,-3.0091,-3.0119,-3.0135,-3.0148,-3.0142,-2.9931,0,0,0,0,0,-2.9743,-2.9794,-2.9815,-2.9893,-2.9909,-2.9915,-2.9943,-2.9936,-2.9966,-2.9978,-2.9994,-3.0025,-3.0074,-3.0106,-3.0151,-3.0249,-3.0255,-3.0294,-3.0307,-3.0317,-3.0327,-3.038,-3.0398,-3.0212,-3.0212,-3.0212,0,0,-2.979,-2.9811,-2.9844,-2.9905,-2.9927,-2.998,-2.9926,-2.9984,-3.0023,-2.9987,-3.0062,-3.0077,-3.011,-3.0199,-3.0239,-3.0214,-3.038,-3.0328,-3.0336,-3.034,-3.039,-3.0408,-3.0424,-3.0218,-3.0217,-3.0216,0,0,-2.9902,-2.9924,-2.9991,-3.0015,-3.005,-3.0055,-3.0071,-3.01,-3.0108,-3.0184,-3.0159,-3.0206,-3.029,-3.0316,-3.0339,-3.0466,-3.0443,-3.0482,-3.0548,-3.06,-3.0615,-3.0628,-3.0673,-3.0689,-3.0492,-3.0492,-3.0492,0,-2.9955,-3.0034,-3.0028,-3.0089,-3.0116,-3.0088,-3.0156,-3.018,-3.0229,-3.0249,-3.022,-3.0326,-3.0347,-3.0441,-3.0473,-3.0494,-3.0512,-3.0476,-3.0614,-3.0626,-3.0638,-3.0681,-3.0698,-3.0496,-3.0496,-3.0495,-3.0495,0,-3.0098,-3.0154,-3.0204,-3.0252,-3.0286,-3.035,-3.0354,-3.039,-3.0381,-3.0389,-3.0468,-3.0493,-3.0543,-3.0566,-3.0557,-3.0661,-3.0643,-3.0615,-3.0561,-3.066,-3.07,-3.0716,-3.0502,-3.0501,-3.0499,-3.0498,0,0,-3.0242,-3.0289,-3.0307,-3.0329,-3.0368,-3.0411,-3.0476,-3.0526,-3.0556,-3.0592,-3.0645,-3.0719,-3.0693,-3.0721,-3.0715,-3.0762,-3.0861,-3.0727,-3.0728,-3.075,-3.0976,-3.0996,-3.1015,-3.0847,-3.085,-3.0853,-3.0973,0,-3.0355,-3.0466,-3.0464,-3.0568,-3.0619,-3.0596,-3.0652,-3.0682,-3.0693,-3.0738,-3.075,-3.0802,-3.0764,-3.0781,-3.0826,-3.0839,-3.0905,-3.0831,-3.0896,-3.0899,-3.0886,-3.1036,-3.1056,-3.1168,-3.0989,-3.0991,-3.0993,0,-3.05,-3.0542,-3.0651,-3.0684,-3.0706,-3.0756,-3.0803,-3.0848,-3.0883,-3.0887,-3.092,-3.0908,-3.0974,-3.0922,-3.1014,-3.0963,-3.0991,-3.1002,-3.1006,-3.1009,-3.095,-3.1042,-3.1204,-3.122,-3.1018,-3.1016,-3.1014,0,-3.0593,-3.0677,-3.0753,-3.0773,-3.0814,-3.085,-3.0869,-3.0901,-3.0932,-3.0974,-3.0994,-3.1044,-3.107,-3.1109,-3.1112,-3.1073,-3.1205,-3.1152,-3.121,-3.121,-3.1235,-3.1233,-3.1402,-3.1257,-3.1257,-3.1257,-3.1256,0,-3.0717,-3.0784,-3.0795,-3.0841,-3.0917,-3.0916,-3.099,-3.1006,-3.1036,-3.1085,-3.1069,-3.1116,-3.1118,-3.1167,-3.117,-3.1245,-3.1258,-3.1263,-3.1263,-3.1263,-3.1262,-3.1279,-3.127,-3.1261,-3.126,-3.1259,-3.1259,0,-3.0831,-3.0841,-3.0922,-3.0956,-3.0966,-3.102,-3.1049,-3.1094,-3.1105,-3.1168,-3.1183,-3.1199,-3.1256,-3.1264,-3.1331,-3.1333,-3.1423,-3.1416,-3.1411,-3.1409,-3.1465,-3.1459,-3.1649,-3.1674,-3.1515,-3.1517,-3.1518,0,-3.0908,-3.096,-3.1,-3.1033,-3.1054,-3.1106,-3.1139,-3.1141,-3.1176,-3.1222,-3.1261,-3.1317,-3.1361,-3.1454,-3.1472,-3.1524,-3.1516,-3.1579,-3.1523,-3.1522,-3.1515,-3.1511,-3.1516,-3.1588,-3.159,-3.1592,-3.1593,0,-3.1044,-3.1048,-3.1095,-3.1145,-3.1185,-3.1224,-3.1261,-3.1289,-3.1297,-3.1337,-3.1395,-3.143,-3.1499,-3.1555,-3.1607,-3.1627,-3.1611,-3.1611,-3.1627,-3.1626,-3.1621,-3.1623,-3.1438,-3.1606,-3.1604,-3.1603,-3.1603,-3.1602,-3.1141,-3.1186,-3.1222,-3.1276,-3.1305,-3.1341,-3.1385,-3.1403,-3.1452,-3.1508,-3.1507,-3.1572,-3.1609,-3.1677,-3.1701,-3.1752,-3.1731,-3.1754,-3.176,-3.1765,-3.1769,-3.1616,-3.1762,-3.1762,-3.1761,-3.1761,-3.1761,0,-3.1274,-3.1297,-3.1347,-3.1401,-3.1444,-3.1428,-3.147,-3.1507,-3.1564,-3.16,-3.1645,-3.1713,-3.1768,-3.1792,-3.1847,-3.1883,-3.1877,-3.1897,-3.1893,-3.1898,-3.1786,-3.1766,-3.1901,-3.1901,-3.1901,-3.1901,-3.1901,-3.1901,-3.1348,-3.1423,-3.1432,-3.1523,-3.1546,-3.1609,-3.1634,-3.1668,-3.1696,-3.1774,-3.182,-3.1836,-3.1868,-3.1925,-3.1975,-3.1981,-3.2001,-3.2024,-3.2026,-3.192,-3.1906,-3.1892,-3.1873,-3.2028,-3.2029,-3.2134,-3.2135,-3.2135]},{"header":{"parameterUnit":"m.s-1","parameterCategory":1,"la1":30.2991,"la2":30.254,"lo1":-89.0895,"lo2":-89.0444,"dy":0.0017,"dx":0.0017,"nx":28,"ny":28,"refTime":"2023-09-02T21:00:00:Z","depth":0,"parameterNumber":3,"parameterNumberName":"V-component_of_WINDS"},"data":[0,0,0,0,0,0,0,0,0,0,0,0,0,0,0,0,0,0,0,0,0,0,0,0,0,0,0,0,0,0,0,0,0,0,0,0,0,0,0,0,0,0,0,0,0,0,0,0,0,0,0,0,0,0,0,0,0,0,1.3347,1.3349,0,1.3474,1.3476,1.3477,1.3574,1.3574,1.3575,1.3576,1.3697,1.37,1.3702,0,0,0,0,0,0,0,0,0,0,0,0,0,1.3178,1.3181,1.3347,1.3349,1.335,1.3474,1.3476,1.3478,1.3573,1.3575,1.3576,1.3577,1.3696,1.3699,1.3702,0,0,0,0,0,0,0,0,0,0,0,0,0,1.3273,1.3182,1.3347,1.3413,1.3421,1.3474,1.3476,1.3478,1.3573,1.3575,1.3576,1.3577,1.3696,1.3699,1.3702,1.3697,0,0,1.3713,1.3715,0,0,0,0,0,0,0,0,1.3267,1.3279,1.3402,1.3409,1.3417,1.351,1.3461,1.3551,1.3573,1.3515,1.3576,1.3578,1.3633,1.3642,1.3662,1.3703,1.3708,1.3714,1.3716,1.3717,1.3718,0,0,0,0,0,0,0,1.3261,1.3274,1.3397,1.3404,1.3413,1.3434,1.3449,1.3478,1.3564,1.352,1.3527,1.3542,1.3637,1.3659,1.3666,1.371,1.3714,1.3717,1.3719,1.372,1.3749,1.3748,0,0,0,0,0,0,1.3245,1.3268,1.3393,1.3401,1.3344,1.3436,1.3452,1.3478,1.3565,1.3579,1.354,1.3546,1.3652,1.3662,1.3671,1.3669,1.3717,1.3721,1.3723,1.3751,1.3749,1.3748,0,0,0,0,0,0,1.3241,1.3255,1.3388,1.3337,1.3355,1.3437,1.3466,1.348,1.3502,1.358,1.3595,1.3547,1.3653,1.3666,1.369,1.3674,1.3722,1.3725,1.3752,1.375,1.3748,1.3665,0,0,0,0,0,0,1.3236,1.3253,1.3254,1.3336,1.3358,1.3408,1.3465,1.3482,1.3509,1.3517,1.359,1.3603,1.3655,1.3684,1.3693,1.368,1.3728,1.3754,1.3751,1.3749,1.367,1.366,1.3653,0,0,0,0,0,1.3229,1.3224,1.3254,1.3269,1.3361,1.3407,1.3419,1.3482,1.3507,1.3507,1.3557,1.3601,1.3675,1.3686,1.3697,1.3684,1.3755,1.3752,1.3749,1.3673,1.3662,1.3653,0,0,0,0,0,0,1.3136,1.3236,1.327,1.3292,1.3341,1.3423,1.3425,1.3468,1.3508,1.3513,1.3587,1.3602,1.3618,1.3654,1.3665,1.3683,1.372,1.3719,1.3659,1.3649,1.3641,1.3631,1.3731,0,0,0,0,0,1.3118,1.315,1.3235,1.3246,1.3269,1.3342,1.3365,1.3409,1.3461,1.3481,1.3533,1.3579,1.3612,1.3633,1.3668,1.3675,1.3691,1.3672,1.3663,1.3656,1.3654,1.3658,1.365,1.3738,1.3738,1.3738,0,0,1.3081,1.314,1.3155,1.3228,1.3271,1.3299,1.3359,1.3387,1.3407,1.3484,1.3511,1.355,1.3606,1.3622,1.3631,1.3652,1.3633,1.3652,1.3646,1.3648,1.3654,1.3646,1.3638,1.3736,1.3736,1.3736,0,0,1.3028,1.3077,1.3091,1.3133,1.3198,1.3247,1.325,1.3326,1.3356,1.3385,1.3443,1.3466,1.3523,1.3561,1.3587,1.3546,1.3587,1.3555,1.3511,1.3514,1.3507,1.3501,1.3485,1.3478,1.3553,1.3553,1.3553,0,1.2972,1.3021,1.3091,1.3116,1.3145,1.3219,1.3231,1.3268,1.3339,1.3356,1.3379,1.3452,1.3495,1.3519,1.3509,1.3528,1.3532,1.3547,1.3503,1.3498,1.3493,1.3479,1.3472,1.3549,1.3549,1.355,1.355,0,1.2949,1.2981,1.2983,1.3054,1.3084,1.3101,1.3172,1.3193,1.3234,1.3279,1.3306,1.336,1.3407,1.3416,1.3456,1.3445,1.3456,1.349,1.3529,1.348,1.3467,1.3462,1.3542,1.3544,1.3545,1.3546,0,0,1.284,1.2949,1.2949,1.2981,1.3058,1.3082,1.3102,1.3151,1.3166,1.3213,1.3229,1.3276,1.3308,1.3337,1.3381,1.3384,1.3347,1.3418,1.342,1.3401,1.3336,1.3308,1.3301,1.3375,1.3374,1.3373,1.333,0,1.2797,1.2841,1.2905,1.2926,1.2955,1.3025,1.3042,1.3089,1.3131,1.316,1.3206,1.3237,1.3278,1.3296,1.3302,1.335,1.3334,1.3354,1.3388,1.3388,1.337,1.3295,1.3267,1.3223,1.3326,1.3325,1.3325,0,1.2754,1.2799,1.2824,1.2898,1.2912,1.2927,1.2975,1.3003,1.3056,1.3087,1.312,1.3168,1.3189,1.3226,1.3255,1.3267,1.3284,1.3309,1.3309,1.3313,1.3352,1.3295,1.3212,1.3204,1.3318,1.3318,1.3319,0,1.267,1.2737,1.276,1.2785,1.2872,1.288,1.2916,1.2972,1.2996,1.3038,1.3054,1.3096,1.3119,1.3149,1.3206,1.3228,1.3227,1.3269,1.3251,1.3249,1.3246,1.3245,1.3162,1.326,1.326,1.326,1.326,0,1.2615,1.2627,1.2723,1.2737,1.2752,1.2823,1.2834,1.2876,1.2924,1.2945,1.3008,1.3025,1.3101,1.3126,1.317,1.3186,1.3196,1.3219,1.323,1.3213,1.3209,1.3224,1.3228,1.3258,1.3259,1.3259,1.3259,0,1.2523,1.2589,1.2619,1.2699,1.2719,1.2726,1.2793,1.2807,1.2854,1.2879,1.2889,1.2961,1.2994,1.3055,1.3104,1.3134,1.3139,1.316,1.3122,1.3128,1.3106,1.3107,1.3028,1.3021,1.3124,1.3123,1.3122,0,1.2483,1.2495,1.2576,1.2597,1.2631,1.2662,1.2688,1.2758,1.2781,1.2843,1.2849,1.2887,1.2922,1.2971,1.3025,1.3062,1.3084,1.3054,1.3089,1.3071,1.3081,1.3079,1.3079,1.3045,1.3043,1.3042,1.3041,0,1.2405,1.2437,1.2474,1.2521,1.2551,1.2591,1.2634,1.2646,1.2725,1.2748,1.2784,1.2811,1.2862,1.2898,1.2944,1.2977,1.302,1.303,1.3027,1.3008,1.2985,1.2996,1.3098,1.3031,1.3032,1.3033,1.3033,1.3033,1.2337,1.235,1.241,1.2448,1.2488,1.2526,1.2544,1.2593,1.2625,1.2675,1.2713,1.2745,1.2796,1.2862,1.2893,1.2917,1.2937,1.2934,1.2933,1.2931,1.2923,1.2983,1.2925,1.2926,1.2926,1.2926,1.2926,0,1.2261,1.2303,1.2337,1.2397,1.2426,1.2468,1.2517,1.2538,1.2567,1.2612,1.2645,1.2685,1.272,1.2778,1.2817,1.2824,1.2845,1.2832,1.2831,1.2838,1.2903,1.29,1.2815,1.2815,1.2815,1.2815,1.2815,1.2815,1.2224,1.2248,1.2286,1.2328,1.237,1.2404,1.2428,1.2463,1.25,1.2542,1.2573,1.2611,1.266,1.2703,1.2736,1.2752,1.2762,1.2743,1.2764,1.2823,1.2833,1.2843,1.2842,1.2745,1.2745,1.2697,1.2697,1.2696]}]]